Location: *
(51.8167°N, 12.5000°E)
Time: 15:54:11
(UTC+00:00)

Cosmos 1934 Rocket - Pass Details

Date: 16 September 2019
Orbit: 938 x 999 km, 83.0° (Epoch: 14 October)

Event Time Altitude Azimuth Distance (km) Brightness Sun altitude
Rises 20:57:54 0° 349° (N) 3,619 7.9 -29.4°
Reaches altitude 10° 21:00:22 10° 349° (N) 2,674 7.1 -29.6°
Enters shadow 21:06:19 83° 300° (WNW) 966 3.9 -30.2°
